owner,sensor,date,latitude,longitude,air_pressure(mBar),qcFlag 
TABS,ioos:station:wmo:42047:1,2012-04-01T00:00:00Z,27.8966,-93.5973,1011.41,11111222 
TABS,ioos:station:wmo:42047:1,2012-04-01T00:30:00Z,27.8966,-93.5973,1011.52,11111222 
TABS,ioos:station:wmo:42047:1,2012-04-01T01:00:00Z,27.8966,-93.5973,1011.67,11111222 
TABS,ioos:station:wmo:42047:1,2012-04-01T01:30:00Z,27.8966,-93.5973,1012.14,11111222 
TABS,ioos:station:wmo:42047:1,2012-04-01T02:00:00Z,27.8966,-93.5973,1012.76,11111222 
TABS,ioos:station:wmo:42047:1,2012-04-01T02:30:00Z,27.8966,-93.5973,1012.95,11111222 
TABS,ioos:station:wmo:42047:1,2012-04-01T03:00:00Z,27.8966,-93.5973,1012.54,11111222 
TABS,ioos:station:wmo:42047:1,2012-04-01T03:30:00Z,27.8966,-93.5973,1012.43,11111222 
TABS,ioos:station:wmo:42047:1,2012-04-01T04:00:00Z,27.8966,-93.5973,1012.36,11111222 
TABS,ioos:station:wmo:42047:1,2012-04-01T04:30:00Z,27.8966,-93.5973,1012.34,11111222 
TABS,ioos:station:wmo:42047:1,2012-04-01T05:00:00Z,27.8966,-93.5973,1012.03,11111222 
TABS,ioos:station:wmo:42047:1,2012-04-01T05:30:00Z,27.8966,-93.5973,1011.71,11111222 
TABS,ioos:station:wmo:42047:1,2012-04-01T06:00:00Z,27.8966,-93.5973,1011.36,11111222 
TABS,ioos:station:wmo:42047:1,2012-04-01T06:30:00Z,27.8966,-93.5973,1011.27,11111222 
TABS,ioos:station:wmo:42047:1,2012-04-01T07:00:00Z,27.8966,-93.5973,1011.38,11111222 
TABS,ioos:station:wmo:42047:1,2012-04-01T07:30:00Z,27.8966,-93.5973,1011.16,11111222 
TABS,ioos:station:wmo:42047:1,2012-04-01T08:00:00Z,27.8966,-93.5973,1010.98,11111222 
TABS,ioos:station:wmo:42047:1,2012-04-01T08:30:00Z,27.8966,-93.5973,1010.88,11111222 
TABS,ioos:station:wmo:42047:1,2012-04-01T09:00:00Z,27.8966,-93.5973,1010.76,11111222 
TABS,ioos:station:wmo:42047:1,2012-04-01T09:30:00Z,27.8966,-93.5973,1010.61,11111222 
TABS,ioos:station:wmo:42047:1,2012-04-01T10:00:00Z,27.8966,-93.5973,1010.86,11111222 
TABS,ioos:station:wmo:42047:1,2012-04-01T10:30:00Z,27.8966,-93.5973,1011.21,11111222 
TABS,ioos:station:wmo:42047:1,2012-04-01T11:00:00Z,27.8966,-93.5973,1011.39,11111222 
TABS,ioos:station:wmo:42047:1,2012-04-01T11:30:00Z,27.8966,-93.5973,1011.23,11111222 
TABS,ioos:station:wmo:42047:1,2012-04-01T12:00:00Z,27.8966,-93.5973,1011.33,11111222 
TABS,ioos:station:wmo:42047:1,2012-04-01T12:30:00Z,27.8966,-93.5973,1011.48,11111222 
TABS,ioos:station:wmo:42047:1,2012-04-01T13:00:00Z,27.8966,-93.5973,1011.6,11111222 
TABS,ioos:station:wmo:42047:1,2012-04-01T13:30:00Z,27.8966,-93.5973,1011.77,11111222 
TABS,ioos:station:wmo:42047:1,2012-04-01T14:00:00Z,27.8966,-93.5973,1011.88,11111222 
TABS,ioos:station:wmo:42047:1,2012-04-01T14:30:00Z,27.8966,-93.5973,1012.16,11111222 
TABS,ioos:station:wmo:42047:1,2012-04-01T15:00:00Z,27.8966,-93.5973,1012.14,11111222 
TABS,ioos:station:wmo:42047:1,2012-04-01T15:30:00Z,27.8966,-93.5973,1012.37,11111222 
TABS,ioos:station:wmo:42047:1,2012-04-01T16:00:00Z,27.8966,-93.5973,1012.51,11111222 
TABS,ioos:station:wmo:42047:1,2012-04-01T16:30:00Z,27.8966,-93.5973,1012.29,11111222 
TABS,ioos:station:wmo:42047:1,2012-04-01T17:00:00Z,27.8966,-93.5973,1012.31,11111222 
TABS,ioos:station:wmo:42047:1,2012-04-01T17:30:00Z,27.8966,-93.5973,1011.96,11111222 
TABS,ioos:station:wmo:42047:1,2012-04-01T18:00:00Z,27.8966,-93.5973,1011.69,11111222 
TABS,ioos:station:wmo:42047:1,2012-04-01T18:30:00Z,27.8966,-93.5973,1011.36,11111222 
TABS,ioos:station:wmo:42047:1,2012-04-01T19:00:00Z,27.8966,-93.5973,1010.78,11111222 
TABS,ioos:station:wmo:42047:1,2012-04-01T19:30:00Z,27.8966,-93.5973,1010.41,11111222 
TABS,ioos:station:wmo:42047:1,2012-04-01T20:00:00Z,27.8966,-93.5973,1009.86,11111222 
TABS,ioos:station:wmo:42047:1,2012-04-01T20:30:00Z,27.8966,-93.5973,1009.3,11111222 
TABS,ioos:station:wmo:42047:1,2012-04-01T21:00:00Z,27.8966,-93.5973,1009.14,11111222 
TABS,ioos:station:wmo:42047:1,2012-04-01T21:30:00Z,27.8966,-93.5973,1008.77,11111222 
TABS,ioos:station:wmo:42047:1,2012-04-01T22:00:00Z,27.8966,-93.5973,1008.61,11111222 
TABS,ioos:station:wmo:42047:1,2012-04-01T22:30:00Z,27.8966,-93.5973,1008.41,11111222 
TABS,ioos:station:wmo:42047:1,2012-04-01T23:00:00Z,27.8966,-93.5973,1008.32,11111222 
TABS,ioos:station:wmo:42047:1,2012-04-01T23:30:00Z,27.8966,-93.5973,1008.52,11111222 
TABS,ioos:station:wmo:42047:1,2012-04-02T00:00:00Z,27.8966,-93.5973,1008.54,11111222 
TABS,ioos:station:wmo:42047:1,2012-04-02T00:30:00Z,27.8966,-93.5973,1008.36,11111222 
TABS,ioos:station:wmo:42047:1,2012-04-02T01:00:00Z,27.8966,-93.5973,1008.46,11111222 
TABS,ioos:station:wmo:42047:1,2012-04-02T01:30:00Z,27.8966,-93.5973,1008.67,11111222 
TABS,ioos:station:wmo:42047:1,2012-04-02T02:00:00Z,27.8966,-93.5973,1008.87,11111222 
TABS,ioos:station:wmo:42047:1,2012-04-02T02:30:00Z,27.8966,-93.5973,1008.93,11111222 
TABS,ioos:station:wmo:42047:1,2012-04-02T03:00:00Z,27.8966,-93.5973,1009.27,11111222 
TABS,ioos:station:wmo:42047:1,2012-04-02T03:30:00Z,27.8966,-93.5973,1009.23,11111222 
TABS,ioos:station:wmo:42047:1,2012-04-02T04:00:00Z,27.8966,-93.5973,1009.29,11111222 
TABS,ioos:station:wmo:42047:1,2012-04-02T04:30:00Z,27.8966,-93.5973,1009.17,11111222 
TABS,ioos:station:wmo:42047:1,2012-04-02T05:00:00Z,27.8966,-93.5973,1008.93,11111222 
TABS,ioos:station:wmo:42047:1,2012-04-02T05:30:00Z,27.8966,-93.5973,1008.69,11111222 
TABS,ioos:station:wmo:42047:1,2012-04-02T06:00:00Z,27.8966,-93.5973,1008.13,11111222 
TABS,ioos:station:wmo:42047:1,2012-04-02T06:30:00Z,27.8966,-93.5973,1007.97,11111222 
TABS,ioos:station:wmo:42047:1,2012-04-02T07:00:00Z,27.8966,-93.5973,1007.82,11111222 
TABS,ioos:station:wmo:42047:1,2012-04-02T07:30:00Z,27.8966,-93.5973,1007.89,11111222 
TABS,ioos:station:wmo:42047:1,2012-04-02T08:00:00Z,27.8966,-93.5973,1007.6,11111222 
TABS,ioos:station:wmo:42047:1,2012-04-02T08:30:00Z,27.8966,-93.5973,1007.33,11111222 
TABS,ioos:station:wmo:42047:1,2012-04-02T09:00:00Z,27.8966,-93.5973,1006.97,11111222 
TABS,ioos:station:wmo:42047:1,2012-04-02T09:30:00Z,27.8966,-93.5973,1006.52,11111222 
TABS,ioos:station:wmo:42047:1,2012-04-02T10:00:00Z,27.8966,-93.5973,1006.64,11111222 
TABS,ioos:station:wmo:42047:1,2012-04-02T10:30:00Z,27.8966,-93.5973,1006.43,11111222 
TABS,ioos:station:wmo:42047:1,2012-04-02T11:00:00Z,27.8966,-93.5973,1006.74,11111222 
TABS,ioos:station:wmo:42047:1,2012-04-02T11:30:00Z,27.8966,-93.5973,1007.15,11111222 
TABS,ioos:station:wmo:42047:1,2012-04-02T12:00:00Z,27.8966,-93.5973,1007.13,11111222 
TABS,ioos:station:wmo:42047:1,2012-04-02T12:30:00Z,27.8966,-93.5973,1007.72,11111222 
TABS,ioos:station:wmo:42047:1,2012-04-02T13:00:00Z,27.8966,-93.5973,1007.25,11111222 
TABS,ioos:station:wmo:42047:1,2012-04-02T13:30:00Z,27.8966,-93.5973,1007.48,11111222 
TABS,ioos:station:wmo:42047:1,2012-04-02T14:00:00Z,27.8966,-93.5973,1007.9,11111222 
TABS,ioos:station:wmo:42047:1,2012-04-02T14:30:00Z,27.8966,-93.5973,1008.41,11111222 
TABS,ioos:station:wmo:42047:1,2012-04-02T15:00:00Z,27.8966,-93.5973,1008.59,11111222 
TABS,ioos:station:wmo:42047:1,2012-04-02T15:30:00Z,27.8966,-93.5973,1009.39,11111222 
TABS,ioos:station:wmo:42047:1,2012-04-02T16:00:00Z,27.8966,-93.5973,1009.45,11111222 
TABS,ioos:station:wmo:42047:1,2012-04-02T16:30:00Z,27.8966,-93.5973,1009.55,11111222 
TABS,ioos:station:wmo:42047:1,2012-04-02T17:00:00Z,27.8966,-93.5973,1008.85,11111222 
TABS,ioos:station:wmo:42047:1,2012-04-02T17:30:00Z,27.8966,-93.5973,1008.41,11111222 
TABS,ioos:station:wmo:42047:1,2012-04-02T18:00:00Z,27.8966,-93.5973,1008.04,11111222 
TABS,ioos:station:wmo:42047:1,2012-04-02T18:30:00Z,27.8966,-93.5973,1007.44,11111222 
TABS,ioos:station:wmo:42047:1,2012-04-02T19:00:00Z,27.8966,-93.5973,1006.99,11111222 
TABS,ioos:station:wmo:42047:1,2012-04-02T19:30:00Z,27.8966,-93.5973,1006.33,11111222 
TABS,ioos:station:wmo:42047:1,2012-04-02T20:00:00Z,27.8966,-93.5973,1006.36,11111222 
TABS,ioos:station:wmo:42047:1,2012-04-02T20:30:00Z,27.8966,-93.5973,1006.1,11111222 
TABS,ioos:station:wmo:42047:1,2012-04-02T21:00:00Z,27.8966,-93.5973,1005.86,11111222 
TABS,ioos:station:wmo:42047:1,2012-04-02T21:30:00Z,27.8966,-93.5973,1005.7,11111222 
TABS,ioos:station:wmo:42047:1,2012-04-02T22:00:00Z,27.8966,-93.5973,1005.85,11111222 
TABS,ioos:station:wmo:42047:1,2012-04-02T22:30:00Z,27.8966,-93.5973,1005.64,11111222 
TABS,ioos:station:wmo:42047:1,2012-04-02T23:00:00Z,27.8966,-93.5973,1005.82,11111222 
TABS,ioos:station:wmo:42047:1,2012-04-02T23:30:00Z,27.8966,-93.5973,1005.86,11111222 
TABS,ioos:station:wmo:42047:1,2012-04-03T00:00:00Z,27.8966,-93.5973,1005.67,11111222 
TABS,ioos:station:wmo:42047:1,2012-04-03T00:30:00Z,27.8966,-93.5973,1005.96,11111222 
TABS,ioos:station:wmo:42047:1,2012-04-03T01:00:00Z,27.8966,-93.5973,1005.91,11111222 
TABS,ioos:station:wmo:42047:1,2012-04-03T01:30:00Z,27.8966,-93.5973,1006.01,11111222 
TABS,ioos:station:wmo:42047:1,2012-04-03T02:00:00Z,27.8966,-93.5973,1006.13,11111222 
TABS,ioos:station:wmo:42047:1,2012-04-03T02:30:00Z,27.8966,-93.5973,1006.16,11111222 
TABS,ioos:station:wmo:42047:1,2012-04-03T03:00:00Z,27.8966,-93.5973,1006.32,11111222 
TABS,ioos:station:wmo:42047:1,2012-04-03T03:30:00Z,27.8966,-93.5973,1006.56,11111222 
TABS,ioos:station:wmo:42047:1,2012-04-03T04:00:00Z,27.8966,-93.5973,1006.67,11111222 
TABS,ioos:station:wmo:42047:1,2012-04-03T04:30:00Z,27.8966,-93.5973,1006.91,11111222 
TABS,ioos:station:wmo:42047:1,2012-04-03T05:00:00Z,27.8966,-93.5973,1006.94,11111222 
TABS,ioos:station:wmo:42047:1,2012-04-03T05:30:00Z,27.8966,-93.5973,1006.95,11111222 
TABS,ioos:station:wmo:42047:1,2012-04-03T06:00:00Z,27.8966,-93.5973,1006.97,11111222 
TABS,ioos:station:wmo:42047:1,2012-04-03T06:30:00Z,27.8966,-93.5973,1007.02,11111222 
TABS,ioos:station:wmo:42047:1,2012-04-03T07:00:00Z,27.8966,-93.5973,1007.04,11111222 
TABS,ioos:station:wmo:42047:1,2012-04-03T07:30:00Z,27.8966,-93.5973,1007.16,11111222 
TABS,ioos:station:wmo:42047:1,2012-04-03T08:00:00Z,27.8966,-93.5973,1007.18,11111222 
TABS,ioos:station:wmo:42047:1,2012-04-03T08:30:00Z,27.8966,-93.5973,1007.42,11111222 
TABS,ioos:station:wmo:42047:1,2012-04-03T09:00:00Z,27.8966,-93.5973,1007.78,11111222 
TABS,ioos:station:wmo:42047:1,2012-04-03T09:30:00Z,27.8966,-93.5973,1008.21,11111222 
TABS,ioos:station:wmo:42047:1,2012-04-03T10:00:00Z,27.8966,-93.5973,1008.54,11111222 
TABS,ioos:station:wmo:42047:1,2012-04-03T10:30:00Z,27.8966,-93.5973,1008.96,11111222 
TABS,ioos:station:wmo:42047:1,2012-04-03T11:00:00Z,27.8966,-93.5973,1008.93,11111222 
TABS,ioos:station:wmo:42047:1,2012-04-03T11:30:00Z,27.8966,-93.5973,1008.82,11111222 
TABS,ioos:station:wmo:42047:1,2012-04-03T12:00:00Z,27.8966,-93.5973,1008.76,11111222 
TABS,ioos:station:wmo:42047:1,2012-04-03T12:30:00Z,27.8966,-93.5973,1009.01,11111222 
TABS,ioos:station:wmo:42047:1,2012-04-03T13:00:00Z,27.8966,-93.5973,1009.26,11111222 
TABS,ioos:station:wmo:42047:1,2012-04-03T13:30:00Z,27.8966,-93.5973,1009.53,11111222 
TABS,ioos:station:wmo:42047:1,2012-04-03T14:00:00Z,27.8966,-93.5973,1009.53,11111222 
TABS,ioos:station:wmo:42047:1,2012-04-03T14:30:00Z,27.8966,-93.5973,1009.62,11111222 
TABS,ioos:station:wmo:42047:1,2012-04-03T15:00:00Z,27.8966,-93.5973,1009.85,11111222 
TABS,ioos:station:wmo:42047:1,2012-04-03T15:30:00Z,27.8966,-93.5973,1010.02,11111222 
TABS,ioos:station:wmo:42047:1,2012-04-03T16:00:00Z,27.8966,-93.5973,1010.21,11111222 
TABS,ioos:station:wmo:42047:1,2012-04-03T16:30:00Z,27.8966,-93.5973,1010.43,11111222 
TABS,ioos:station:wmo:42047:1,2012-04-03T17:00:00Z,27.8966,-93.5973,1010.45,11111222 
TABS,ioos:station:wmo:42047:1,2012-04-03T17:30:00Z,27.8966,-93.5973,1010.21,11111222 
TABS,ioos:station:wmo:42047:1,2012-04-03T18:00:00Z,27.8966,-93.5973,1009.45,11111222 
TABS,ioos:station:wmo:42047:1,2012-04-03T18:30:00Z,27.8966,-93.5973,1009.25,11111222 
TABS,ioos:station:wmo:42047:1,2012-04-03T19:00:00Z,27.8966,-93.5973,1009.01,11111222 
TABS,ioos:station:wmo:42047:1,2012-04-03T19:30:00Z,27.8966,-93.5973,1008.9,11111222 
TABS,ioos:station:wmo:42047:1,2012-04-03T20:00:00Z,27.8966,-93.5973,1008.95,11111222 
TABS,ioos:station:wmo:42047:1,2012-04-03T20:30:00Z,27.8966,-93.5973,1008.59,11111222 
TABS,ioos:station:wmo:42047:1,2012-04-03T21:00:00Z,27.8966,-93.5973,1008.53,11111222 
TABS,ioos:station:wmo:42047:1,2012-04-03T21:30:00Z,27.8966,-93.5973,1008.29,11111222 
TABS,ioos:station:wmo:42047:1,2012-04-03T22:00:00Z,27.8966,-93.5973,1008.18,11111222 
TABS,ioos:station:wmo:42047:1,2012-04-03T22:30:00Z,27.8966,-93.5973,1008.2,11111222 
TABS,ioos:station:wmo:42047:1,2012-04-03T23:00:00Z,27.8966,-93.5973,1008.21,11111222 
TABS,ioos:station:wmo:42047:1,2012-04-03T23:30:00Z,27.8966,-93.5973,1008.13,11111222 
TABS,ioos:station:wmo:42047:1,2012-04-04T00:00:00Z,27.8966,-93.5973,1007.72,11111222 
TABS,ioos:station:wmo:42047:1,2012-04-04T00:30:00Z,27.8966,-93.5973,1007.63,11111222 
TABS,ioos:station:wmo:42047:1,2012-04-04T01:00:00Z,27.8966,-93.5973,1007.84,11111222 
TABS,ioos:station:wmo:42047:1,2012-04-04T01:30:00Z,27.8966,-93.5973,1008.46,11111222 
TABS,ioos:station:wmo:42047:1,2012-04-04T02:00:00Z,27.8966,-93.5973,1009.09,11111222 
TABS,ioos:station:wmo:42047:1,2012-04-04T02:30:00Z,27.8966,-93.5973,1009.45,11111222 
TABS,ioos:station:wmo:42047:1,2012-04-04T03:00:00Z,27.8966,-93.5973,1009.36,11111222 
TABS,ioos:station:wmo:42047:1,2012-04-04T03:30:00Z,27.8966,-93.5973,1009.52,11111222 
TABS,ioos:station:wmo:42047:1,2012-04-04T04:00:00Z,27.8966,-93.5973,1009.46,11111222 
TABS,ioos:station:wmo:42047:1,2012-04-04T04:30:00Z,27.8966,-93.5973,1009.51,11111222 
TABS,ioos:station:wmo:42047:1,2012-04-04T05:00:00Z,27.8966,-93.5973,1009.57,11111222 
TABS,ioos:station:wmo:42047:1,2012-04-04T05:30:00Z,27.8966,-93.5973,1009.45,11111222 
TABS,ioos:station:wmo:42047:1,2012-04-04T06:00:00Z,27.8966,-93.5973,1009.64,11111222 
TABS,ioos:station:wmo:42047:1,2012-04-04T06:30:00Z,27.8966,-93.5973,1009.86,11111222 
TABS,ioos:station:wmo:42047:1,2012-04-04T07:00:00Z,27.8966,-93.5973,1009.43,11111222 
TABS,ioos:station:wmo:42047:1,2012-04-04T07:30:00Z,27.8966,-93.5973,1009.27,11111222 
TABS,ioos:station:wmo:42047:1,2012-04-04T08:00:00Z,27.8966,-93.5973,1009.18,11111222 
TABS,ioos:station:wmo:42047:1,2012-04-04T08:30:00Z,27.8966,-93.5973,1009.35,11111222 
TABS,ioos:station:wmo:42047:1,2012-04-04T09:00:00Z,27.8966,-93.5973,1009.51,11111222 
TABS,ioos:station:wmo:42047:1,2012-04-04T09:30:00Z,27.8966,-93.5973,1009.63,11111222 
TABS,ioos:station:wmo:42047:1,2012-04-04T10:00:00Z,27.8966,-93.5973,1009.59,11111222 
TABS,ioos:station:wmo:42047:1,2012-04-04T10:30:00Z,27.8966,-93.5973,1009.84,11111222 
TABS,ioos:station:wmo:42047:1,2012-04-04T11:00:00Z,27.8966,-93.5973,1009.92,11111222 
TABS,ioos:station:wmo:42047:1,2012-04-04T11:30:00Z,27.8966,-93.5973,1009.86,11111222 
TABS,ioos:station:wmo:42047:1,2012-04-04T12:00:00Z,27.8966,-93.5973,1010.27,11111222 
TABS,ioos:station:wmo:42047:1,2012-04-04T12:30:00Z,27.8966,-93.5973,1010.27,11111222 
TABS,ioos:station:wmo:42047:1,2012-04-04T13:00:00Z,27.8966,-93.5973,1010.1,11111222 
TABS,ioos:station:wmo:42047:1,2012-04-04T13:30:00Z,27.8966,-93.5973,1010.53,11111222 
TABS,ioos:station:wmo:42047:1,2012-04-04T14:00:00Z,27.8966,-93.5973,1010.85,11111222 
TABS,ioos:station:wmo:42047:1,2012-04-04T14:30:00Z,27.8966,-93.5973,1011.26,11111222 
TABS,ioos:station:wmo:42047:1,2012-04-04T15:00:00Z,27.8966,-93.5973,1011.11,11111222 
TABS,ioos:station:wmo:42047:1,2012-04-04T15:30:00Z,27.8966,-93.5973,1011.43,11111222 
TABS,ioos:station:wmo:42047:1,2012-04-04T16:00:00Z,27.8966,-93.5973,1011.27,11111222 
TABS,ioos:station:wmo:42047:1,2012-04-04T16:30:00Z,27.8966,-93.5973,1011.01,11111222 
TABS,ioos:station:wmo:42047:1,2012-04-04T17:00:00Z,27.8966,-93.5973,1010.63,11111222 
TABS,ioos:station:wmo:42047:1,2012-04-04T17:30:00Z,27.8966,-93.5973,1010.37,11111222 
TABS,ioos:station:wmo:42047:1,2012-04-04T18:00:00Z,27.8966,-93.5973,1009.76,11111222 
TABS,ioos:station:wmo:42047:1,2012-04-04T18:30:00Z,27.8966,-93.5973,1009.15,11111222 
TABS,ioos:station:wmo:42047:1,2012-04-04T19:00:00Z,27.8966,-93.5973,1008.86,11111222 
TABS,ioos:station:wmo:42047:1,2012-04-04T19:30:00Z,27.8966,-93.5973,1008.44,11111222 
TABS,ioos:station:wmo:42047:1,2012-04-04T20:00:00Z,27.8966,-93.5973,1008.15,11111222 
TABS,ioos:station:wmo:42047:1,2012-04-04T20:30:00Z,27.8966,-93.5973,1008.04,11111222 
TABS,ioos:station:wmo:42047:1,2012-04-04T21:00:00Z,27.8966,-93.5973,1007.94,11111222 
TABS,ioos:station:wmo:42047:1,2012-04-04T21:30:00Z,27.8966,-93.5973,1007.91,11111222 
TABS,ioos:station:wmo:42047:1,2012-04-04T22:00:00Z,27.8966,-93.5973,1007.29,11111222 
TABS,ioos:station:wmo:42047:1,2012-04-04T22:30:00Z,27.8966,-93.5973,1007.43,11111222 
TABS,ioos:station:wmo:42047:1,2012-04-04T23:00:00Z,27.8966,-93.5973,1006.89,11111222 
TABS,ioos:station:wmo:42047:1,2012-04-04T23:30:00Z,27.8966,-93.5973,1007.46,11111222 
TABS,ioos:station:wmo:42047:1,2012-04-05T00:00:00Z,27.8966,-93.5973,1007.22,11111222 
TABS,ioos:station:wmo:42047:1,2012-04-05T00:30:00Z,27.8966,-93.5973,1007.19,11111222 
TABS,ioos:station:wmo:42047:1,2012-04-05T01:00:00Z,27.8966,-93.5973,1008.68,11111222 
TABS,ioos:station:wmo:42047:1,2012-04-05T01:30:00Z,27.8966,-93.5973,1009.41,11111222 
TABS,ioos:station:wmo:42047:1,2012-04-05T02:00:00Z,27.8966,-93.5973,1009.93,11111222 
TABS,ioos:station:wmo:42047:1,2012-04-05T02:30:00Z,27.8966,-93.5973,1010.05,11111222 
TABS,ioos:station:wmo:42047:1,2012-04-05T03:00:00Z,27.8966,-93.5973,1008.13,11111222 
TABS,ioos:station:wmo:42047:1,2012-04-05T03:30:00Z,27.8966,-93.5973,1008.76,11111222 
TABS,ioos:station:wmo:42047:1,2012-04-05T04:00:00Z,27.8966,-93.5973,1008.3,11111222 
TABS,ioos:station:wmo:42047:1,2012-04-05T04:30:00Z,27.8966,-93.5973,1008.47,11111222 
TABS,ioos:station:wmo:42047:1,2012-04-05T05:00:00Z,27.8966,-93.5973,1008.4,11111222 
TABS,ioos:station:wmo:42047:1,2012-04-05T05:30:00Z,27.8966,-93.5973,1008.4,11111222 
TABS,ioos:station:wmo:42047:1,2012-04-05T06:00:00Z,27.8966,-93.5973,1008.32,11111222 
TABS,ioos:station:wmo:42047:1,2012-04-05T06:30:00Z,27.8966,-93.5973,1008.71,11111222 
TABS,ioos:station:wmo:42047:1,2012-04-05T07:00:00Z,27.8966,-93.5973,1008.18,11111222 
TABS,ioos:station:wmo:42047:1,2012-04-05T07:30:00Z,27.8966,-93.5973,1008.07,11111222 
TABS,ioos:station:wmo:42047:1,2012-04-05T08:00:00Z,27.8966,-93.5973,1008.13,11111222 
TABS,ioos:station:wmo:42047:1,2012-04-05T08:30:00Z,27.8966,-93.5973,1008.38,11111222 
TABS,ioos:station:wmo:42047:1,2012-04-05T09:00:00Z,27.8966,-93.5973,1008.26,11111222 
TABS,ioos:station:wmo:42047:1,2012-04-05T09:30:00Z,27.8966,-93.5973,1008.38,11111222 
TABS,ioos:station:wmo:42047:1,2012-04-05T10:00:00Z,27.8966,-93.5973,1008.16,11111222 
TABS,ioos:station:wmo:42047:1,2012-04-05T10:30:00Z,27.8966,-93.5973,1008.09,11111222 
TABS,ioos:station:wmo:42047:1,2012-04-05T11:00:00Z,27.8966,-93.5973,1008.18,11111222 
TABS,ioos:station:wmo:42047:1,2012-04-05T11:30:00Z,27.8966,-93.5973,1008.75,11111222 
TABS,ioos:station:wmo:42047:1,2012-04-05T12:00:00Z,27.8966,-93.5973,1009.36,11111222 
TABS,ioos:station:wmo:42047:1,2012-04-05T12:30:00Z,27.8966,-93.5973,1009.81,11111222 
TABS,ioos:station:wmo:42047:1,2012-04-05T13:00:00Z,27.8966,-93.5973,1009.65,11111222 
TABS,ioos:station:wmo:42047:1,2012-04-05T13:30:00Z,27.8966,-93.5973,1009.78,11111222 
TABS,ioos:station:wmo:42047:1,2012-04-05T14:00:00Z,27.8966,-93.5973,1009.74,11111222 
TABS,ioos:station:wmo:42047:1,2012-04-05T14:30:00Z,27.8966,-93.5973,1009.85,11111222 
TABS,ioos:station:wmo:42047:1,2012-04-05T15:00:00Z,27.8966,-93.5973,1010.17,11111222 
TABS,ioos:station:wmo:42047:1,2012-04-05T15:30:00Z,27.8966,-93.5973,1010.31,11111222 
TABS,ioos:station:wmo:42047:1,2012-04-05T16:00:00Z,27.8966,-93.5973,1010.58,11111222 
TABS,ioos:station:wmo:42047:1,2012-04-05T16:30:00Z,27.8966,-93.5973,1010.52,11111222 
TABS,ioos:station:wmo:42047:1,2012-04-05T17:00:00Z,27.8966,-93.5973,1010.42,11111222 
TABS,ioos:station:wmo:42047:1,2012-04-05T17:30:00Z,27.8966,-93.5973,1010.33,11111222 
TABS,ioos:station:wmo:42047:1,2012-04-05T18:00:00Z,27.8966,-93.5973,1010.2,11111222 
TABS,ioos:station:wmo:42047:1,2012-04-05T18:30:00Z,27.8966,-93.5973,1010.01,11111222 
TABS,ioos:station:wmo:42047:1,2012-04-05T19:00:00Z,27.8966,-93.5973,1009.83,11111222 
TABS,ioos:station:wmo:42047:1,2012-04-05T19:30:00Z,27.8966,-93.5973,1009.77,11111222 
TABS,ioos:station:wmo:42047:1,2012-04-05T20:00:00Z,27.8966,-93.5973,1009.18,11111222 
TABS,ioos:station:wmo:42047:1,2012-04-05T20:30:00Z,27.8966,-93.5973,1008.8,11111222 
TABS,ioos:station:wmo:42047:1,2012-04-05T21:00:00Z,27.8966,-93.5973,1008.7,11111222 
TABS,ioos:station:wmo:42047:1,2012-04-05T21:30:00Z,27.8966,-93.5973,1008.6,11111222 
TABS,ioos:station:wmo:42047:1,2012-04-05T22:00:00Z,27.8966,-93.5973,1008.61,11111222 
TABS,ioos:station:wmo:42047:1,2012-04-05T22:30:00Z,27.8966,-93.5973,1008.8,11111222 
TABS,ioos:station:wmo:42047:1,2012-04-05T23:00:00Z,27.8966,-93.5973,1008.97,11111222 
TABS,ioos:station:wmo:42047:1,2012-04-05T23:30:00Z,27.8966,-93.5973,1008.91,11111222 
TABS,ioos:station:wmo:42047:1,2012-04-06T00:00:00Z,27.8966,-93.5973,1009.12,11111222 
TABS,ioos:station:wmo:42047:1,2012-04-06T00:30:00Z,27.8966,-93.5973,1009.07,11111222 
TABS,ioos:station:wmo:42047:1,2012-04-06T01:00:00Z,27.8966,-93.5973,1009.62,11111222 
TABS,ioos:station:wmo:42047:1,2012-04-06T01:30:00Z,27.8966,-93.5973,1009.65,11111222 
TABS,ioos:station:wmo:42047:1,2012-04-06T02:00:00Z,27.8966,-93.5973,1009.89,11111222 
TABS,ioos:station:wmo:42047:1,2012-04-06T02:30:00Z,27.8966,-93.5973,1010.21,11111222 
TABS,ioos:station:wmo:42047:1,2012-04-06T03:00:00Z,27.8966,-93.5973,1010.47,11111222 
TABS,ioos:station:wmo:42047:1,2012-04-06T03:30:00Z,27.8966,-93.5973,1010.59,11111222 
TABS,ioos:station:wmo:42047:1,2012-04-06T04:00:00Z,27.8966,-93.5973,1010.95,11111222 
TABS,ioos:station:wmo:42047:1,2012-04-06T04:30:00Z,27.8966,-93.5973,1011.16,11111222 
TABS,ioos:station:wmo:42047:1,2012-04-06T05:00:00Z,27.8966,-93.5973,1011.32,11111222 
TABS,ioos:station:wmo:42047:1,2012-04-06T05:30:00Z,27.8966,-93.5973,1011.57,11111222 
TABS,ioos:station:wmo:42047:1,2012-04-06T06:00:00Z,27.8966,-93.5973,1011.53,11111222 
TABS,ioos:station:wmo:42047:1,2012-04-06T06:30:00Z,27.8966,-93.5973,1011.36,11111222 
TABS,ioos:station:wmo:42047:1,2012-04-06T07:00:00Z,27.8966,-93.5973,1011.39,11111222 
TABS,ioos:station:wmo:42047:1,2012-04-06T07:30:00Z,27.8966,-93.5973,1011.18,11111222 
TABS,ioos:station:wmo:42047:1,2012-04-06T08:00:00Z,27.8966,-93.5973,1011.05,11111222 
TABS,ioos:station:wmo:42047:1,2012-04-06T08:30:00Z,27.8966,-93.5973,1010.83,11111222 
TABS,ioos:station:wmo:42047:1,2012-04-06T09:00:00Z,27.8966,-93.5973,1010.93,11111222 
TABS,ioos:station:wmo:42047:1,2012-04-06T09:30:00Z,27.8966,-93.5973,1011.19,11111222 
TABS,ioos:station:wmo:42047:1,2012-04-06T10:00:00Z,27.8966,-93.5973,1011.28,11111222 
TABS,ioos:station:wmo:42047:1,2012-04-06T10:30:00Z,27.8966,-93.5973,1011.64,11111222 
TABS,ioos:station:wmo:42047:1,2012-04-06T11:00:00Z,27.8966,-93.5973,1011.82,11111222 
TABS,ioos:station:wmo:42047:1,2012-04-06T11:30:00Z,27.8966,-93.5973,1011.99,11111222 
TABS,ioos:station:wmo:42047:1,2012-04-06T12:00:00Z,27.8966,-93.5973,1012.41,11111222 
TABS,ioos:station:wmo:42047:1,2012-04-06T12:30:00Z,27.8966,-93.5973,1012.87,11111222 
TABS,ioos:station:wmo:42047:1,2012-04-06T13:00:00Z,27.8966,-93.5973,1013.22,11111222 
TABS,ioos:station:wmo:42047:1,2012-04-06T13:30:00Z,27.8966,-93.5973,1013.42,11111222 
TABS,ioos:station:wmo:42047:1,2012-04-06T14:00:00Z,27.8966,-93.5973,1013.83,11111222 
TABS,ioos:station:wmo:42047:1,2012-04-06T14:30:00Z,27.8966,-93.5973,1014.17,11111222 
TABS,ioos:station:wmo:42047:1,2012-04-06T15:00:00Z,27.8966,-93.5973,1014.29,11111222 
TABS,ioos:station:wmo:42047:1,2012-04-06T15:30:00Z,27.8966,-93.5973,1014.57,11111222 
TABS,ioos:station:wmo:42047:1,2012-04-06T16:00:00Z,27.8966,-93.5973,1014.67,11111222 
TABS,ioos:station:wmo:42047:1,2012-04-06T16:30:00Z,27.8966,-93.5973,1014.76,11111222 
TABS,ioos:station:wmo:42047:1,2012-04-06T17:00:00Z,27.8966,-93.5973,1014.73,11111222 
TABS,ioos:station:wmo:42047:1,2012-04-06T17:30:00Z,27.8966,-93.5973,1014.76,11111222 
TABS,ioos:station:wmo:42047:1,2012-04-06T18:00:00Z,27.8966,-93.5973,1014.54,11111222 
TABS,ioos:station:wmo:42047:1,2012-04-06T18:30:00Z,27.8966,-93.5973,1014.67,11111222 